Location: Black Swamp Observatory
(41.3920°N, 84.1250°W)
Time: 21:06:45
(UTC-04:00)

Amateur Radio Satellites - All Passes

Search period start: 31 October 2014 20:36
Search period end: 01 November 2014 20:36
Location: Black Swamp Observatory, 41.3920°N, 84.1250°W

Satellite Date Start Highest point End Downlink Frequencies (MHz)
Time Altitude Azimuth
SO-50 31 Oct 20:43:34 20:48:26 76° 56° (NE) 20:53:19 436.795 FM
AO-40 31 Oct 20:51:51 22:20:24 15° 109° (ESE) 23:15:23 Beacon 2401.320
Oscar 10/S400 31 Oct 20:53:55 21:28:12 53° 198° (SSW) 06:00:12 145.825 - 145.975 CW/USB, Beacon 145.810 USB
SO-67 31 Oct 20:59:06 21:00:49 13° 268° (W) 21:02:32 435.3500 MHz FM
Oscar 11 31 Oct 21:24:53 21:27:38 17° 65° (ENE) 21:30:22 145.825 FM, Beacon 2401.500 USB
UOSAT-12 31 Oct 21:26:24 21:30:18 25° 45° (NE) 21:34:09 437.025 FM, 437.400 FM
STRAND 1 31 Oct 21:40:20 21:44:32 26° 295° (WNW) 21:48:43 ?
FUNcube-1 31 Oct 21:43:35 21:45:16 12° 62° (ENE) 21:46:58 145.950 - 145.970 MHz USB
RS-15 31 Oct 21:49:08 21:59:58 67° 116° (ESE) 22:10:44 29.354 - 29.394 USB, Beacon 29.352 USB
MaSat-1 31 Oct 21:50:17 21:51:59 13° 106° (ESE) 21:53:37 437.345 MHz
HO-68 31 Oct 21:51:12 21:58:22 80° 255° (WSW) 22:05:37 435.675 MHz FM
UKube-1 31 Oct 22:24:17 22:28:38 80° 75° (ENE) 22:33:01 145.840 MHz, 145.915 MHz
KITSAT 1 31 Oct 22:25:58 22:32:33 29° 254° (WSW) 22:39:07 435.175 FM
SO-50 31 Oct 22:26:05 22:28:23 13° 252° (WSW) 22:30:41 436.795 FM
ZACube-1 31 Oct 22:34:07 22:38:20 40° 71° (ENE) 22:42:29 437.345 MHz
Oscar 11 31 Oct 22:59:18 23:03:26 45° 261° (W) 23:07:36 145.825 FM, Beacon 2401.500 USB
UOSAT-12 31 Oct 23:06:09 23:10:40 46° 243° (WSW) 23:15:04 437.025 FM, 437.400 FM
FUNcube-1 31 Oct 23:16:33 23:21:05 72° 258° (WSW) 23:25:32 145.950 - 145.970 MHz USB
MaSat-1 31 Oct 23:23:22 23:27:05 46° 298° (WNW) 23:30:28 437.345 MHz
HO-68 31 Oct 23:44:02 23:47:07 13° 272° (W) 23:50:13 435.675 MHz FM
RS-15 01 Nov 00:02:54 00:13:00 41° 320° (NW) 00:23:12 29.354 - 29.394 USB, Beacon 29.352 USB
ZACube-1 01 Nov 00:11:35 00:14:51 19° 267° (W) 00:18:05 437.345 MHz
Sapphire 01 Nov 01:54:30 01:57:45 16° 104° (ESE) 02:01:00 437.095 MHz 1200 baud AX-25 AFSK
PCSat 01 Nov 02:14:37 02:19:06 27° 108° (ESE) 02:23:37 145.825 MHz
AO-Echo 01 Nov 02:14:40 02:16:11 11° 88° (E) 02:17:42 ?
JAS-1B 01 Nov 02:15:23 02:21:46 31° 96° (E) 02:29:03 435.800 - 435.900 CW/SSB
RS-15 01 Nov 02:21:51 02:29:34 21° 354° (N) 02:37:24 29.354 - 29.394 USB, Beacon 29.352 USB
Oscar 19 01 Nov 02:33:07 02:37:40 32° 96° (E) 02:42:13 437.125 CW, 437.150 USB
AO-27 01 Nov 03:10:52 03:15:24 30° 96° (E) 03:19:55 436.795 MHz FM
Oscar 16 01 Nov 03:19:54 03:25:03 90° 104° (ESE) 03:30:11 437.025 USB, Beacon 2401.1428
Gurwin Techsat 1B 01 Nov 03:29:39 03:33:54 24° 94° (E) 03:38:08 435.225 FM
Sapphire 01 Nov 03:35:10 03:40:33 69° 301° (WNW) 03:45:59 437.095 MHz 1200 baud AX-25 AFSK
TMSAT-1 01 Nov 03:35:55 03:39:48 20° 92° (E) 03:43:40 436.925 FM
AO-Echo 01 Nov 03:50:16 03:55:37 88° 284° (WNW) 04:00:53 ?
Uribyol 2 01 Nov 03:53:52 03:59:06 79° 103° (ESE) 04:04:16 436.500 FM
PCSat 01 Nov 03:57:09 04:02:17 43° 306° (NW) 04:07:28 145.825 MHz
ITAMSAT 1 01 Nov 04:01:58 04:07:14 87° 105° (ESE) 04:12:26 435.822 SSB
AO-7 01 Nov 04:03:32 04:04:54 10° 86° (E) 04:06:16 29.400 - 29.500 MHz
JAS-1B 01 Nov 04:05:32 04:12:28 57° 290° (WNW) 04:20:43 435.800 - 435.900 CW/SSB
Oscar 19 01 Nov 04:12:29 04:16:57 31° 293° (WNW) 04:21:24 437.125 CW, 437.150 USB
RS-15 01 Nov 04:37:38 04:47:01 30° 29° (NNE) 04:56:37 29.354 - 29.394 USB, Beacon 29.352 USB
AO-27 01 Nov 04:50:13 04:54:55 34° 292° (WNW) 04:59:34 436.795 MHz FM
Oscar 16 01 Nov 05:01:44 05:03:38 12° 302° (WNW) 05:05:32 437.025 USB, Beacon 2401.1428
Gurwin Techsat 1B 01 Nov 05:09:01 05:14:01 43° 290° (WNW) 05:19:00 435.225 FM
TMSAT-1 01 Nov 05:14:52 05:20:00 51° 289° (WNW) 05:25:05 436.925 FM
OPAL 01 Nov 05:19:30 05:24:11 38° 67° (ENE) 05:28:50 ?
Saudisat 1A 01 Nov 05:19:46 05:21:53 13° 109° (ESE) 05:24:01 436.775 MHz
Sapphire 01 Nov 05:22:22 05:25:00 14° 322° (NW) 05:27:39 437.095 MHz 1200 baud AX-25 AFSK
AO-Echo 01 Nov 05:31:23 05:33:33 13° 302° (WNW) 05:35:43 ?
Uribyol 2 01 Nov 05:35:13 05:37:53 14° 301° (WNW) 05:40:32 436.500 FM
Uosat F 01 Nov 05:42:26 05:47:14 43° 99° (E) 05:52:00 435.120 FM
ITAMSAT 1 01 Nov 05:43:41 05:45:57 13° 302° (WNW) 05:48:13 435.822 SSB
JAS-2 01 Nov 05:47:15 05:53:11 23° 89° (E) 05:58:55 435.800 - 435.900 CW/SSB, 435.910 FM
AO-7 01 Nov 05:50:54 05:59:12 65° 104° (ESE) 06:07:27 29.400 - 29.500 MHz
JAS-1B 01 Nov 06:00:35 06:01:53 11° 307° (NW) 06:03:13 435.800 - 435.900 CW/SSB
PANSAT 01 Nov 06:26:35 06:28:04 12° 181° (S) 06:29:33 not established
Hamsat 01 Nov 06:27:28 06:30:17 17° 92° (E) 06:33:05 145.90 MHz
RS-15 01 Nov 06:50:06 07:01:21 81° 56° (ENE) 07:13:04 29.354 - 29.394 USB, Beacon 29.352 USB
Saudisat 1A 01 Nov 06:56:34 07:00:54 64° 305° (NW) 07:05:18 436.775 MHz
OPAL 01 Nov 06:58:55 07:03:08 26° 263° (W) 07:07:20 ?
STRAND 1 01 Nov 07:16:36 07:21:37 57° 72° (ENE) 07:26:41 ?
Uosat F 01 Nov 07:21:49 07:25:44 23° 296° (WNW) 07:29:39 435.120 FM
JAS-2 01 Nov 07:30:58 07:38:51 76° 287° (WNW) 07:46:25 435.800 - 435.900 CW/SSB, 435.910 FM
MaSat-1 01 Nov 07:33:13 07:34:36 14° 54° (NE) 07:35:57 437.345 MHz
AO-7 01 Nov 07:44:28 07:51:25 31° 303° (WNW) 07:58:24 29.400 - 29.500 MHz
Hamsat 01 Nov 08:02:26 08:06:22 40° 288° (WNW) 08:10:20 145.90 MHz
SO-67 01 Nov 08:20:15 08:23:30 38° 98° (E) 08:26:43 435.3500 MHz FM
Saudisat 1A 01 Nov 08:40:10 08:41:21 11° 325° (NW) 08:42:33 436.775 MHz
STRAND 1 01 Nov 08:57:51 09:01:10 17° 268° (W) 09:04:30 ?
RS-15 01 Nov 09:03:45 09:12:33 28° 257° (WSW) 09:21:40 29.354 - 29.394 USB, Beacon 29.352 USB
MaSat-1 01 Nov 09:08:31 09:09:50 14° 253° (WSW) 09:11:07 437.345 MHz
JAS-2 01 Nov 09:17:53 09:22:34 18° 306° (NW) 09:27:13 435.800 - 435.900 CW/SSB, 435.910 FM
HO-68 01 Nov 09:20:18 09:25:13 19° 91° (E) 09:30:06 435.675 MHz FM
ISS 01 Nov 09:51:03 09:53:29 19° 133° (SE) 09:55:55 145.800 FM
SO-67 01 Nov 09:54:38 09:56:06 12° 294° (WNW) 09:57:34 435.3500 MHz FM
UKube-1 01 Nov 10:14:07 10:16:15 13° 91° (E) 10:18:21 145.840 MHz, 145.915 MHz
Sapphire 01 Nov 10:40:49 10:44:24 18° 42° (NE) 10:47:58 437.095 MHz 1200 baud AX-25 AFSK
Oscar 11 01 Nov 10:46:53 10:50:42 30° 96° (E) 10:54:31 145.825 FM, Beacon 2401.500 USB
KITSAT 1 01 Nov 10:58:05 11:05:34 44° 110° (ESE) 11:13:05 435.175 FM
SO-50 01 Nov 10:59:30 11:03:02 23° 112° (ESE) 11:06:38 436.795 FM
PCSat 01 Nov 11:01:52 11:06:21 25° 47° (NE) 11:10:49 145.825 MHz
HO-68 01 Nov 11:06:24 11:13:36 77° 289° (WNW) 11:20:46 435.675 MHz FM
FUNcube-1 01 Nov 11:06:28 11:09:35 20° 94° (E) 11:12:40 145.950 - 145.970 MHz USB
ISS 01 Nov 11:26:41 11:29:55 51° 329° (NNW) 11:33:11 145.800 FM
UKube-1 01 Nov 11:48:29 11:52:46 55° 287° (WNW) 11:57:00 145.840 MHz, 145.915 MHz
ZACube-1 01 Nov 11:59:17 12:03:30 84° 102° (ESE) 12:07:38 437.345 MHz
Sapphire 01 Nov 12:23:05 12:28:33 86° 242° (WSW) 12:33:58 437.095 MHz 1200 baud AX-25 AFSK
Oscar 11 01 Nov 12:23:18 12:26:44 24° 292° (WNW) 12:30:10 145.825 FM, Beacon 2401.500 USB
SO-50 01 Nov 12:39:03 12:43:19 40° 310° (NW) 12:47:43 436.795 FM
FUNcube-1 01 Nov 12:42:18 12:46:02 32° 290° (WNW) 12:49:43 145.950 - 145.970 MHz USB
PCSat 01 Nov 12:44:48 12:50:04 52° 246° (WSW) 12:55:17 145.825 MHz
KITSAT 1 01 Nov 12:53:15 13:00:56 46° 310° (NW) 13:08:40 435.175 FM
HO-68 01 Nov 12:56:10 13:00:10 16° 308° (NW) 13:04:09 435.675 MHz FM
Oscar 16 01 Nov 13:00:01 13:03:17 17° 62° (ENE) 13:06:32 437.025 USB, Beacon 2401.1428
JAS-1B 01 Nov 13:04:08 13:08:03 20° 60° (ENE) 13:12:00 435.800 - 435.900 CW/SSB
ISS 01 Nov 13:04:58 13:07:12 17° 348° (NNW) 13:09:27 145.800 FM
UOSAT-12 01 Nov 13:16:54 13:21:23 52° 118° (ESE) 13:25:58 437.025 FM, 437.400 FM
AO-Echo 01 Nov 13:27:04 13:29:59 16° 60° (ENE) 13:32:57 ?
Uribyol 2 01 Nov 13:35:03 13:38:09 16° 60° (ENE) 13:41:14 436.500 FM
ITAMSAT 1 01 Nov 13:42:55 13:46:19 18° 61° (ENE) 13:49:44 435.822 SSB
Saudisat 1A 01 Nov 13:44:45 13:47:24 15° 40° (NE) 13:50:03 436.775 MHz
Oscar 19 01 Nov 13:49:58 13:54:52 47° 71° (ENE) 13:59:46 437.125 CW, 437.150 USB
Sapphire 01 Nov 14:09:47 14:11:05 11° 259° (WSW) 14:12:23 437.095 MHz 1200 baud AX-25 AFSK
AO-27 01 Nov 14:28:55 14:33:52 46° 70° (ENE) 14:38:52 436.795 MHz FM
Oscar 16 01 Nov 14:37:01 14:42:07 63° 259° (WSW) 14:47:13 437.025 USB, Beacon 2401.1428
ISS 01 Nov 14:42:48 14:44:53 15° 9° (N) 14:46:59 145.800 FM
Gurwin Techsat 1B 01 Nov 14:50:39 14:55:31 38° 69° (ENE) 15:00:25 435.225 FM
JAS-1B 01 Nov 14:52:38 14:58:16 56° 259° (W) 15:03:55 435.800 - 435.900 CW/SSB
KITSAT 1 01 Nov 14:54:13 14:58:43 16° 337° (NNW) 15:03:14 435.175 FM
TMSAT-1 01 Nov 14:56:32 15:01:12 32° 67° (ENE) 15:05:53 436.925 FM
UOSAT-12 01 Nov 14:58:09 15:01:50 22° 317° (NW) 15:05:34 437.025 FM, 437.400 FM
AO-7 01 Nov 15:00:49 15:06:22 20° 50° (NE) 15:11:54 29.400 - 29.500 MHz
AO-Echo 01 Nov 15:03:08 15:08:06 70° 258° (WSW) 15:13:17 ?
Uribyol 2 01 Nov 15:11:49 15:17:01 70° 258° (WSW) 15:22:15 436.500 FM
ITAMSAT 1 01 Nov 15:20:08 15:25:17 63° 258° (WSW) 15:30:30 435.822 SSB
Saudisat 1A 01 Nov 15:23:05 15:27:32 80° 239° (WSW) 15:31:56 436.775 MHz
Oscar 19 01 Nov 15:30:37 15:34:25 21° 267° (W) 15:38:15 437.125 CW, 437.150 USB
AO-27 01 Nov 16:09:35 16:13:35 22° 266° (W) 16:17:37 436.795 MHz FM
ISS 01 Nov 16:19:05 16:22:16 39° 28° (NNE) 16:25:26 145.800 FM
Gurwin Techsat 1B 01 Nov 16:31:06 16:35:33 27° 265° (W) 16:40:02 435.225 FM
TMSAT-1 01 Nov 16:36:21 16:41:04 32° 264° (W) 16:45:48 436.925 FM
AO-7 01 Nov 16:49:42 16:57:58 84° 70° (ENE) 17:06:18 29.400 - 29.500 MHz
Uosat F 01 Nov 16:55:38 17:00:34 61° 72° (ENE) 17:05:33 435.120 FM
KITSAT 1 01 Nov 16:56:07 16:58:27 11° 8° (N) 17:00:47 435.175 FM
Hamsat 01 Nov 17:22:01 17:23:59 13° 64° (ENE) 17:25:57 145.90 MHz
JAS-2 01 Nov 17:42:31 17:48:38 51° 68° (ENE) 17:55:34 435.800 - 435.900 CW/SSB, 435.910 FM
ISS 01 Nov 17:56:00 17:58:51 26° 225° (SW) 18:01:41 145.800 FM
Uosat F 01 Nov 18:36:47 18:39:45 16° 269° (W) 18:42:44 435.120 FM
AO-7 01 Nov 18:45:59 18:51:39 20° 269° (W) 18:57:21 29.400 - 29.500 MHz
KITSAT 1 01 Nov 18:50:54 18:57:24 26° 38° (NE) 19:03:52 435.175 FM
SO-67 01 Nov 18:54:08 18:55:56 14° 67° (ENE) 18:57:44 435.3500 MHz FM
Hamsat 01 Nov 18:55:22 18:59:28 55° 260° (W) 19:03:35 145.90 MHz
OPAL 01 Nov 19:07:33 19:12:31 80° 105° (ESE) 19:17:28 ?
STRAND 1 01 Nov 19:28:08 19:31:46 19° 92° (E) 19:35:22 ?
JAS-2 01 Nov 19:28:38 19:34:01 29° 269° (W) 19:40:00 435.800 - 435.900 CW/SSB, 435.910 FM
SO-50 01 Nov 19:30:06 19:34:12 27° 46° (NE) 19:38:20 436.795 FM
HO-68 01 Nov 19:50:42 19:54:53 17° 53° (NE) 19:59:04 435.675 MHz FM
SO-67 01 Nov 20:25:28 20:28:36 33° 263° (W) 20:31:45 435.3500 MHz FM
